Voltar ao catálogo

STARLINK-1371

AtivoComunicaçõesVLEO
NORAD 45542·PAYLOAD·🇺🇸 United States

Lançado Apr 22, 2020 de Cape Canaveral Space Force Station

Loading…

Próximas Passagens (próximas 24 horas)

TLE

AtualizadoSource: CelesTrak SupGP

Época: Sep 14, 2026, 20:12 UTC

1 45542C 20025M   26257.84215278  .00141200  00000+0  72848-3 0  2574
2 45542  53.0365 241.9719 0005539  47.1781 198.7480 15.80336145    11

Acompanhe STARLINK-1371 em tempo real com AllMySat

Download on the App Store